[[{"header":{"parameterUnit":"m.s-1","parameterCategory":1,"la1":30.2991,"la2":30.254,"lo1":-89.0895,"lo2":-89.0444,"dy":0.0017,"dx":0.0017,"nx":28,"ny":28,"refTime":"2025-04-06T21:00:00:Z","depth":0,"parameterNumber":2,"parameterNumberName":"U-component_of_WINDS"},"data":[0,0,0,0,0,0,0,0,0,0,0,0,0,0,0,0,0,0,0,0,0,0,0,0,0,0,0,0,0,0,0,0,0,0,0,0,0,0,0,0,0,0,0,0,0,0,0,0,0,0,0,0,0,0,0,0,0,0,3.0197,3.0197,0,3.0203,3.0203,3.0203,3.0176,3.0175,3.0175,3.0174,3.0179,3.018,3.0181,0,0,0,0,0,0,0,0,0,0,0,0,0,3.0165,3.0166,3.0197,3.0197,3.0197,3.0203,3.0203,3.0203,3.0176,3.0175,3.0175,3.0174,3.0179,3.018,3.0181,0,0,0,0,0,0,0,0,0,0,0,0,0,3.0176,3.0166,3.0197,3.0185,3.0184,3.0203,3.0203,3.0203,3.0177,3.0175,3.0174,3.0173,3.0179,3.018,3.0181,3.0212,0,0,3.0185,3.0186,0,0,0,0,0,0,0,0,3.0175,3.0177,3.0187,3.0186,3.0185,3.0188,3.0193,3.0206,3.0177,3.0179,3.0174,3.0173,3.0183,3.0184,3.0187,3.0212,3.0213,3.0185,3.0186,3.0186,3.0187,0,0,0,0,0,0,0,3.0174,3.0177,3.0199,3.0187,3.0186,3.0179,3.018,3.0196,3.0187,3.0179,3.0177,3.0178,3.0182,3.0186,3.0187,3.0213,3.0185,3.0186,3.0187,3.0187,3.0266,3.0267,0,0,0,0,0,0,3.0175,3.0176,3.0199,3.02,3.0177,3.0181,3.0181,3.0188,3.0187,3.0186,3.0179,3.0177,3.0184,3.0186,3.0187,3.0225,3.0186,3.0188,3.0188,3.0265,3.0266,3.0268,0,0,0,0,0,0,3.0175,3.0178,3.0199,3.0187,3.019,3.0183,3.019,3.0189,3.0192,3.0187,3.0186,3.0185,3.0184,3.0185,3.0207,3.0225,3.0188,3.0189,3.0263,3.0265,3.0267,3.03,0,0,0,0,0,0,3.0174,3.0178,3.0189,3.0188,3.019,3.0218,3.0191,3.0189,3.0195,3.0192,3.0192,3.0191,3.0183,3.0205,3.0208,3.0226,3.019,3.0261,3.0264,3.0266,3.0297,3.0302,3.0307,0,0,0,0,0,3.0173,3.0197,3.0189,3.0192,3.0204,3.0219,3.022,3.0211,3.0196,3.0208,3.0205,3.0191,3.0222,3.0207,3.0211,3.0229,3.026,3.0263,3.0266,3.0294,3.0301,3.0307,0,0,0,0,0,0,3.0199,3.0197,3.0188,3.0213,3.0216,3.0214,3.0228,3.0218,3.0225,3.0222,3.021,3.021,3.0234,3.0234,3.0217,3.026,3.0239,3.0243,3.0259,3.0266,3.0271,3.027,3.0191,0,0,0,0,0,3.0208,3.022,3.0217,3.0239,3.0242,3.0235,3.0241,3.0234,3.0237,3.0238,3.0237,3.024,3.0251,3.0259,3.0268,3.0297,3.0297,3.0312,3.0317,3.0321,3.0324,3.0341,3.0348,3.0277,3.0277,3.0277,0,0,3.0226,3.0226,3.0235,3.0245,3.0247,3.026,3.0236,3.0251,3.0261,3.024,3.026,3.026,3.0263,3.0289,3.03,3.029,3.0344,3.0325,3.0328,3.0329,3.0345,3.0352,3.0358,3.0279,3.0279,3.0279,0,0,3.0266,3.0267,3.0286,3.029,3.0293,3.0289,3.0294,3.0294,3.0293,3.0314,3.0299,3.0311,3.0329,3.0333,3.0338,3.0382,3.037,3.0386,3.0412,3.0429,3.0435,3.044,3.0456,3.0463,3.0389,3.0389,3.0389,0,3.0288,3.0307,3.0298,3.0314,3.032,3.0303,3.0323,3.0326,3.0333,3.0337,3.0325,3.035,3.0351,3.0378,3.0389,3.0393,3.0399,3.0385,3.0435,3.044,3.0444,3.046,3.0466,3.0391,3.0391,3.0391,3.0391,0,3.0335,3.0349,3.0364,3.0372,3.0379,3.0397,3.0391,3.04,3.0393,3.039,3.0412,3.0414,3.0424,3.043,3.0422,3.0457,3.045,3.0437,3.0415,3.0453,3.0468,3.0474,3.0394,3.0393,3.0393,3.0392,0,0,3.039,3.0394,3.04,3.0404,3.0408,3.0419,3.0437,3.0448,3.0456,3.0462,3.0478,3.0495,3.0484,3.0489,3.0482,3.0497,3.0534,3.0482,3.0482,3.0492,3.0573,3.0583,3.059,3.0526,3.0527,3.0528,3.0573,0,3.0429,3.046,3.0453,3.0484,3.0498,3.0483,3.0499,3.0504,3.0503,3.0515,3.0514,3.0527,3.051,3.0513,3.0527,3.0526,3.055,3.0523,3.0541,3.0542,3.054,3.0598,3.0608,3.0651,3.0579,3.058,3.058,0,3.0479,3.0488,3.0521,3.0525,3.053,3.0545,3.0555,3.0567,3.0573,3.0571,3.0578,3.0569,3.0588,3.0567,3.0594,3.0576,3.0583,3.0584,3.0586,3.0587,3.0563,3.0601,3.0664,3.067,3.0589,3.0589,3.0588,0,3.0517,3.0537,3.056,3.0564,3.0569,3.058,3.0582,3.0587,3.0595,3.0604,3.061,3.0621,3.0627,3.0637,3.0632,3.0617,3.0661,3.0638,3.066,3.066,3.0669,3.0669,3.0734,3.0674,3.0674,3.0674,3.0674,0,3.0562,3.0582,3.0577,3.0591,3.0614,3.0607,3.063,3.0631,3.0636,3.0651,3.0639,3.0653,3.0645,3.0659,3.0655,3.0679,3.0682,3.0681,3.068,3.0682,3.0683,3.0687,3.0684,3.0676,3.0675,3.0675,3.0675,0,3.0607,3.0604,3.0628,3.0632,3.0633,3.065,3.0654,3.0667,3.0666,3.0685,3.0689,3.0687,3.0703,3.0699,3.0716,3.0714,3.0744,3.0739,3.0742,3.0741,3.0763,3.0761,3.0833,3.0843,3.0776,3.0777,3.0778,0,3.0636,3.0652,3.0658,3.0667,3.0671,3.0685,3.0694,3.0688,3.0697,3.0707,3.0719,3.0734,3.0746,3.0772,3.0772,3.0786,3.0781,3.0806,3.0783,3.0786,3.0782,3.0782,3.0784,3.081,3.0811,3.0812,3.0812,0,3.0688,3.0686,3.0698,3.0711,3.0722,3.0731,3.074,3.0748,3.0743,3.0755,3.0771,3.078,3.0799,3.0814,3.0827,3.083,3.0821,3.082,3.0825,3.0828,3.0829,3.0829,3.0754,3.0818,3.0817,3.0817,3.0816,3.0816,3.0726,3.074,3.0747,3.0762,3.0768,3.0777,3.079,3.0792,3.0805,3.082,3.0816,3.0835,3.0843,3.086,3.0865,3.088,3.0871,3.0879,3.0881,3.0883,3.0887,3.0827,3.0883,3.0882,3.0882,3.0882,3.0882,0,3.0777,3.0782,3.0796,3.0809,3.0821,3.0812,3.0822,3.0832,3.0849,3.0858,3.087,3.089,3.0906,3.0908,3.0923,3.0935,3.0932,3.094,3.0939,3.094,3.0893,3.0887,3.0943,3.0943,3.0943,3.0943,3.0943,3.0943,3.0806,3.0829,3.0829,3.0857,3.0861,3.088,3.0886,3.0895,3.0902,3.0925,3.0938,3.094,3.0946,3.0962,3.0977,3.0977,3.0984,3.0993,3.0992,3.0949,3.0943,3.0937,3.0931,3.0995,3.0995,3.1037,3.1038,3.1038]},{"header":{"parameterUnit":"m.s-1","parameterCategory":1,"la1":30.2991,"la2":30.254,"lo1":-89.0895,"lo2":-89.0444,"dy":0.0017,"dx":0.0017,"nx":28,"ny":28,"refTime":"2025-04-06T21:00:00:Z","depth":0,"parameterNumber":3,"parameterNumberName":"V-component_of_WINDS"},"data":[0,0,0,0,0,0,0,0,0,0,0,0,0,0,0,0,0,0,0,0,0,0,0,0,0,0,0,0,0,0,0,0,0,0,0,0,0,0,0,0,0,0,0,0,0,0,0,0,0,0,0,0,0,0,0,0,0,0,-5.6685,-5.6686,0,-5.678,-5.6782,-5.6783,-5.6776,-5.6775,-5.6773,-5.6772,-5.6866,-5.687,-5.6874,0,0,0,0,0,0,0,0,0,0,0,0,0,-5.6494,-5.6498,-5.6685,-5.6686,-5.6687,-5.678,-5.6782,-5.6783,-5.6776,-5.6775,-5.6773,-5.6771,-5.6865,-5.6869,-5.6874,0,0,0,0,0,0,0,0,0,0,0,0,0,-5.6582,-5.6499,-5.6684,-5.6695,-5.6697,-5.678,-5.6782,-5.6783,-5.6777,-5.6775,-5.6772,-5.677,-5.6863,-5.6869,-5.6875,-5.6952,0,0,-5.6892,-5.6895,0,0,0,0,0,0,0,0,-5.6577,-5.6589,-5.6692,-5.6694,-5.6697,-5.6764,-5.6749,-5.684,-5.6777,-5.6746,-5.6772,-5.6769,-5.6834,-5.6842,-5.6864,-5.6957,-5.6961,-5.6893,-5.6896,-5.6899,-5.69,0,0,0,0,0,0,0,-5.6571,-5.6585,-5.6722,-5.6694,-5.6697,-5.6694,-5.6705,-5.6766,-5.68,-5.6749,-5.6749,-5.676,-5.6834,-5.6859,-5.6866,-5.6962,-5.6892,-5.6898,-5.6901,-5.6903,-5.7125,-5.7128,0,0,0,0,0,0,-5.6563,-5.658,-5.6719,-5.6725,-5.6631,-5.67,-5.6711,-5.6745,-5.68,-5.6806,-5.6762,-5.676,-5.685,-5.686,-5.687,-5.6966,-5.6898,-5.6904,-5.6907,-5.7123,-5.7126,-5.7129,0,0,0,0,0,0,-5.6559,-5.6575,-5.6715,-5.6653,-5.667,-5.6705,-5.6743,-5.6748,-5.6772,-5.681,-5.6816,-5.6781,-5.6849,-5.6862,-5.6933,-5.6969,-5.6906,-5.6912,-5.712,-5.7124,-5.7127,-5.7158,0,0,0,0,0,0,-5.6553,-5.6574,-5.6604,-5.6653,-5.6674,-5.6777,-5.6745,-5.6751,-5.6782,-5.678,-5.6829,-5.6835,-5.6848,-5.6924,-5.6938,-5.6976,-5.6916,-5.7117,-5.7122,-5.7126,-5.7154,-5.7162,-5.7169,0,0,0,0,0,-5.6547,-5.6607,-5.6605,-5.6622,-5.6712,-5.6779,-5.6791,-5.6806,-5.6785,-5.6816,-5.6841,-5.6833,-5.6963,-5.6931,-5.6947,-5.6987,-5.7115,-5.712,-5.7126,-5.715,-5.716,-5.7169,0,0,0,0,0,0,-5.6559,-5.6614,-5.6612,-5.6691,-5.6731,-5.6778,-5.6817,-5.6816,-5.6861,-5.6857,-5.6873,-5.6884,-5.6956,-5.6978,-5.6943,-5.7066,-5.7036,-5.7045,-5.7049,-5.7059,-5.7067,-5.706,-5.6921,0,0,0,0,0,-5.6571,-5.6622,-5.6667,-5.6732,-5.6752,-5.6781,-5.6811,-5.682,-5.6861,-5.6877,-5.6907,-5.6947,-5.6997,-5.7029,-5.7077,-5.7157,-5.7168,-5.7192,-5.72,-5.7206,-5.7214,-5.726,-5.7272,-5.7147,-5.7147,-5.7147,0,0,-5.6596,-5.6632,-5.6663,-5.6735,-5.6767,-5.682,-5.6795,-5.6851,-5.689,-5.6885,-5.6955,-5.6979,-5.7024,-5.7101,-5.7136,-5.7122,-5.7251,-5.7213,-5.7218,-5.7222,-5.7267,-5.7279,-5.7289,-5.7151,-5.715,-5.7149,0,0,-5.6669,-5.6701,-5.676,-5.6793,-5.6843,-5.6862,-5.6877,-5.6925,-5.6941,-5.7012,-5.701,-5.7056,-5.7141,-5.7175,-5.7203,-5.7291,-5.7287,-5.7306,-5.7347,-5.7392,-5.7402,-5.741,-5.7443,-5.7455,-5.7314,-5.7314,-5.7314,0,-5.6693,-5.6773,-5.679,-5.6847,-5.6879,-5.688,-5.694,-5.6971,-5.7033,-5.7055,-5.7039,-5.7148,-5.7178,-5.7264,-5.7286,-5.7308,-5.7325,-5.7301,-5.7399,-5.7408,-5.7416,-5.7448,-5.746,-5.7316,-5.7316,-5.7316,-5.7315,0,-5.6801,-5.6856,-5.6898,-5.6961,-5.6997,-5.7056,-5.7082,-5.7117,-5.7123,-5.7144,-5.7217,-5.7254,-5.7311,-5.7332,-5.7337,-5.7419,-5.7409,-5.7396,-5.7365,-5.743,-5.746,-5.7472,-5.7319,-5.7318,-5.7318,-5.7317,0,0,-5.6882,-5.6956,-5.6971,-5.7,-5.7056,-5.7099,-5.7158,-5.7215,-5.7246,-5.7289,-5.734,-5.7413,-5.7403,-5.7434,-5.7444,-5.7483,-5.7553,-5.7465,-5.7467,-5.7481,-5.7647,-5.7657,-5.7671,-5.7551,-5.7553,-5.7555,-5.7644,0,-5.6961,-5.7067,-5.7085,-5.7178,-5.723,-5.7233,-5.7284,-5.7324,-5.7347,-5.7394,-5.7417,-5.747,-5.7451,-5.7471,-5.751,-5.7536,-5.7587,-5.753,-5.7598,-5.76,-5.7587,-5.7686,-5.7697,-5.7778,-5.7656,-5.7658,-5.7659,0,-5.7067,-5.7116,-5.7214,-5.7266,-5.7288,-5.7335,-5.739,-5.7435,-5.7481,-5.7494,-5.7532,-5.7538,-5.7599,-5.7567,-5.7652,-5.7614,-5.7642,-5.766,-5.7663,-5.767,-5.7633,-5.7697,-5.7805,-5.7817,-5.7677,-5.7676,-5.7675,0,-5.7117,-5.7208,-5.7279,-5.7304,-5.7366,-5.7399,-5.7426,-5.747,-5.7504,-5.7552,-5.7574,-5.7628,-5.7658,-5.77,-5.772,-5.7694,-5.7805,-5.7773,-5.7818,-5.7817,-5.784,-5.7839,-5.7955,-5.7858,-5.7858,-5.7858,-5.7858,0,-5.7204,-5.7264,-5.7303,-5.7347,-5.7415,-5.7436,-5.7502,-5.7529,-5.7569,-5.7618,-5.7623,-5.7668,-5.7692,-5.7742,-5.7758,-5.7827,-5.784,-5.7853,-5.7856,-5.7853,-5.7851,-5.7872,-5.7867,-5.7861,-5.786,-5.786,-5.7859,0,-5.7272,-5.73,-5.7378,-5.7432,-5.7447,-5.7495,-5.754,-5.7583,-5.7606,-5.7668,-5.7684,-5.7719,-5.7778,-5.7803,-5.7874,-5.7885,-5.7965,-5.7964,-5.795,-5.7951,-5.7995,-5.7991,-5.8129,-5.8148,-5.8038,-5.8039,-5.804,0,-5.7325,-5.7372,-5.7432,-5.7466,-5.7495,-5.7549,-5.7585,-5.7608,-5.7645,-5.7703,-5.7739,-5.7798,-5.7847,-5.794,-5.7972,-5.8027,-5.8028,-5.8073,-5.8036,-5.8032,-5.803,-5.8027,-5.8033,-5.8079,-5.808,-5.8081,-5.8082,0,-5.7417,-5.743,-5.7482,-5.754,-5.7583,-5.7629,-5.7674,-5.7702,-5.7732,-5.7773,-5.7835,-5.7873,-5.7947,-5.8006,-5.8064,-5.8091,-5.8092,-5.8094,-5.8107,-5.8104,-5.8094,-5.8101,-5.7969,-5.809,-5.8089,-5.8089,-5.8088,-5.8088,-5.748,-5.7523,-5.7573,-5.7631,-5.7668,-5.7711,-5.7755,-5.7785,-5.7837,-5.7901,-5.7911,-5.7977,-5.8024,-5.8102,-5.8132,-5.8183,-5.8172,-5.8191,-5.8196,-5.82,-5.8204,-5.8086,-5.8194,-5.8193,-5.8193,-5.8193,-5.8193,0,-5.7574,-5.7607,-5.766,-5.7725,-5.7771,-5.777,-5.7821,-5.7859,-5.7918,-5.7962,-5.8011,-5.8083,-5.8141,-5.8179,-5.8237,-5.8272,-5.8274,-5.8286,-5.8284,-5.8291,-5.821,-5.8193,-5.8284,-5.8284,-5.8284,-5.8284,-5.8284,-5.8284,-5.7628,-5.7701,-5.772,-5.7812,-5.7844,-5.791,-5.794,-5.798,-5.8016,-5.8096,-5.8145,-5.817,-5.8212,-5.8275,-5.8328,-5.8338,-5.836,-5.8373,-5.8382,-5.8306,-5.8296,-5.8287,-5.8272,-5.8378,-5.8378,-5.8459,-5.846,-5.8461]}]]